Overview Statistics Trail Chart Weather Telemetry Raw packets
 

This is the latest recevied weather packets stored in our database for station/object S56VIL-11. If no packets are shown the sender has not sent any weather packets the latest 10 day(s).

<< 8 9 10 11 12 13 14 >>
Time Temp. Humidity Pressure Rain* Wind** Luminosity Snow
1788405931 18.89° C 58% 1033.1 hPa - - - -
1788405031 18.89° C 58% 1033.2 hPa - - - -
1788404131 18.89° C 58% 1033.2 hPa - - - -
1788403234 18.33° C 58% 1033.3 hPa - - - -
1788402312 18.89° C 58% 1033.4 hPa - - - -
1788401408 19.44° C 58% 1033.4 hPa - - - -
1788400511 20° C 57% 1033.3 hPa - - - -
1788399606 20° C 58% 1033.4 hPa - - - -
1788398709 20° C 57% 1033.3 hPa - - - -
1788397804 20° C 58% 1033.3 hPa - - - -
1788396907 20° C 58% 1033.3 hPa - - - -
1788396003 20° C 58% 1033.3 hPa - - - -
1788395106 19.44° C 58% 1033.2 hPa - - - -
1788394201 18.89° C 58% 1033.3 hPa - - - -
1788393304 18.33° C 59% 1033.3 hPa - - - -
1788392400 18.33° C 59% 1033.2 hPa - - - -
1788391503 19.44° C 58% 1033.1 hPa - - - -
1788390600 20° C 58% 1033.3 hPa - - - -
1788389703 19.44° C 58% 1033.3 hPa - - - -
1788388799 20.56° C 57% 1033.3 hPa - - - -
1788387902 21.11° C 57% 1033.3 hPa - - - -
1788386996 20.56° C 57% 1033.5 hPa - - - -
1788386096 19.44° C 58% 1033.5 hPa - - - -
1788385196 20° C 58% 1033.3 hPa - - - -
1788384295 19.44° C 59% 1033.2 hPa - - - -

* Rain since midnight (hover to see other rain measurements)
** Current wind speed in m/s (hover to see current wind gust speed)